Vertical_Velocity
1 -0 -0 -2 -1 1 2 -0 1 -2 -3 -0 1 0 -1 1 2 3 2 1 2 0 1 -1 -1 -0 4 2 1 1 1 -1 -4 -2 -0 -6 9 -6 -2 -1 7 -5 -4
-1 0 -1 2 3 2 0 -1 1 1 -3 -2 1 1 1 2 4 0 1 -3 0 4 2 -0 -1 -3 2 -4 -2 2 -2 3 13 -2 -6 -2 -1 -2 -3 -5 -1 0 1
1 -1 1 2 -1 2 -3 1 3 -2 -2 1 -0 -1 4 -2 2 0 1 2 1 1 1 -2 1 -1 -1 -1 3 0 -6 -2 3 -0 -1 1 2 -2 -0 4 -4 3 -1
-0 7 8 2 4 1 -0 1 -2 -0 -2 -2 -4 -0 0 -2 1 -0 -1 1 -0 0 -1 -2 -0 1 -1 -1 1 7 -1 0 6 -0 -0 -0 -0 -3 -1 -3 2 -1 -3
-3 0 -1 4 4 8 1 5 2 5 2 -1 -2 -1 -2 -1 -1 0 0 -0 -0 -0 1 -1 3 0 0 -1 1 0 2 6 -2 -1 -1 -0 -2 -2 -1 -1 1 1 0
3 -1 2 -2 -1 -4 1 7 2 2 0 1 1 4 3 -1 -1 -1 -2 -2 -1 -2 -1 -0 -1 1 1 1 -1 0 4 -0 0 -1 0 -2 1 -1 -1 -0 1 2 -0
-2 -0 -1 -1 -1 -0 2 2 4 4 15 -0 7 7 3 2 1 -0 1 1 -2 -0 0 -4 -3 1 0 1 -0 -0 1 2 -3 -1 1 -4 -1 -2 -1 0 -2 -2 1
-1 -2 -0 -2 -0 -0 -1 -1 -1 2 1 -13 5 11 8 7 0 0 -3 -2 -0 -1 3 2 -2 -3 -0 -1 -0 1 1 -1 -2 1 -2 -0 0 -1 -0 -1 -1 -0 -0
2 -1 -3 -2 -1 -1 -0 0 0 -1 2 -2 -6 5 -1 4 -1 -1 9 -5 -1 -1 -3 6 6 -6 5 0 -3 1 3 -1 -4 -2 -1 2 -0 0 -1 -0 -0 -2 -1
-4 -2 -1 -2 -2 -1 1 -1 -1 -1 1 -0 0 0 -2 2 -1 -2 4 -6 3 -1 2 -1 2 -0 2 -4 7 -0 1 3 -2 1 0 0 0 -1 -1 -0 0 -3 3
-2 -0 -1 -0 -1 -2 -3 -2 -2 -3 -2 -3 -2 -0 0 -1 2 -1 -2 2 1 -2 1 3 8 4 3 0 2 -2 5 5 2 0 -1 0 -0 0 -1 -0 1 -3 5
2 -0 1 -1 -1 -1 -4 -5 -5 -2 0 -1 -4 -2 -1 -1 -0 1 1 2 -1 2 5 2 6 26 2 4 0 -1 -2 -2 -1 -0 -0 1 -1 0 -1 1 -2 -2 5
-1 1 -2 -2 1 -4 1 0 -2 -4 -5 -2 -2 -2 -5 1 -1 1 1 0 1 2 3 8 6 3 10 6 2 -2 11 -0 -0 0 5 3 0 2 4 10 -1 -0 3
1 -2 -1 -2 1 0 2 1 -1 -4 -5 -2 -4 -4 -3 -2 -0 1 0 1 1 2 -0 -2 4 1 -0 -1 -0 -3 -1 6 4 14 3 1 7 10 4 4 2 -1 2
-1 -1 -1 -1 -0 -5 -4 1 -1 -4 -5 -2 -1 -2 -2 -1 2 3 -0 1 0 -1 -0 -2 -3 -1 -3 2 -1 -3 -4 -3 15 13 7 14 -0 12 8 3 -9 -10 -5
-2 -0 -2 -1 -3 -7 -5 -4 1 -5 -4 -5 -4 -2 -2 -0 2 -0 -1 -0 -1 2 -0 1 1 2 -1 9 36 18 4 3 14 4 11 15 9 -2 -6 -9 -7 -1 -2
-3 -2 -3 -2 -4 -4 -6 -8 -8 2 -8 -7 -2 -2 -4 0 -1 -0 0 -3 3 3 -3 1 4 -11 68 55 -9 1 13 2 4 4 11 -1 -10 -2 -8 -5 -3 -3 1
-2 -3 -3 -1 -3 -4 -6 -2 -7 -9 -3 -3 -5 1 38 9 16 16 -0 -1 -3 -3 -2 0 -4 49 0 10 27 26 16 8 -3 -9 -4 -9 -10 -3 -4 -3 1 -1 -2
-3 -2 -3 -1 -1 -3 -4 1 -2 -6 -6 -3 -2 0 -1 -10 6 6 -6 -2 0 -3 5 15 -11 13 17 21 18 8 1 -11 -6 -13 -3 -7 1 -1 2 -4 -2 4 -0
0 -2 -2 -0 -0 -1 -2 -4 -2 -1 -2 -4 -3 -3 -2 2 3 -1 1 5 4 36 18 20 19 16 22 11 2 -8 -17 -13 -5 -4 0 -1 -0 1 2 -3 -1 -1 -2
-3 -1 -2 -2 -2 -3 -4 -4 -1 -2 -2 -2 -1 -6 2 -2 -2 -1 1 1 0 -4 6 10 9 -13 -14 -11 -10 -3 -2 -2 -2 -2 0 -1 1 -1 -2 -2 -0 0 -4
-1 -1 -2 -2 -1 -5 -4 -1 -1 -3 -0 -0 -5 -4 1 -3 0 1 -1 -4 -2 -2 -5 -5 -6 -8 -2 -0 2 0 -2 -1 -1 -1 -0 -0 -2 0 -2 0 -6 -1 -1
-0 -2 -0 -0 -1 -1 -2 -1 -1 -1 -1 0 1 -0 -3 1 -0 -1 1 -1 -3 -8 -2 -0 -5 -4 -3 -2 -2 -1 0 0 -1 0 1 -1 -4 -3 -1 -1 1 -1 1
-2 -3 -2 -1 -1 -2 -2 -1 -1 0 -1 -1 0 1 0 -1 -1 1 3 2 2 3 3 5 4 1 1 -0 1 0 1 1 -2 -2 -2 -3 -2 -1 5 1 -4 -11 -3
-1 -1 -2 -3 -1 -0 -4 -2 -1 0 0 1 -1 -2 -2 -2 1 -0 -1 0 3 2 1 2 4 2 2 0 0 -2 -5 -4 -1 -3 -0 0 1 3 0 -11 -5 4 -9
-3 -2 -1 -2 -2 -3 -3 -2 -2 -3 -4 -3 -3 -2 -1 1 1 2 2 3 2 1 1 2 0 -3 -3 -3 -3 -3 -3 -2 1 3 -1 -3 -1 -3 -4 1 -10 -6 -7
Height
5880 5882 5883 5885 5886 5888 5890 5891 5893 5894 5895 5898 5900 5904 5907 5908 5910 5914 5915 5918 5920 5920 5921 5922 5922 5923 5923 5923 5923 5923 5923 5923 5923 5922 5923 5920 5916 5918 5916 5915 5916 5913 5910
5876 5878 5879 5882 5883 5884 5885 5886 5888 5890 5892 5893 5896 5899 5902 5904 5905 5907 5909 5911 5913 5915 5916 5917 5918 5918 5918 5919 5919 5920 5920 5920 5920 5918 5917 5916 5916 5914 5911 5909 5910 5909 5907
5873 5874 5876 5877 5879 5880 5880 5882 5883 5885 5887 5889 5890 5893 5895 5897 5900 5901 5903 5906 5908 5910 5911 5911 5913 5913 5913 5914 5914 5915 5914 5915 5915 5913 5913 5912 5911 5909 5907 5904 5901 5903 5900
5869 5870 5872 5872 5873 5874 5875 5877 5878 5879 5880 5882 5884 5886 5887 5890 5893 5895 5897 5899 5901 5903 5904 5906 5907 5907 5908 5908 5909 5910 5909 5909 5907 5908 5908 5907 5906 5904 5902 5900 5898 5896 5896
5860 5862 5865 5868 5867 5868 5868 5871 5871 5872 5873 5874 5877 5879 5881 5883 5886 5888 5890 5892 5894 5896 5898 5900 5902 5902 5902 5903 5904 5903 5904 5904 5903 5903 5903 5901 5899 5898 5896 5895 5893 5890 5889
5855 5855 5858 5860 5861 5861 5861 5862 5863 5865 5866 5867 5869 5871 5873 5877 5879 5881 5883 5885 5887 5888 5890 5892 5894 5895 5896 5897 5896 5897 5896 5896 5896 5896 5896 5893 5893 5890 5889 5888 5886 5884 5881
5847 5848 5849 5851 5852 5853 5854 5854 5855 5855 5854 5855 5859 5861 5865 5867 5871 5872 5875 5877 5878 5881 5882 5883 5885 5887 5888 5888 5888 5889 5889 5889 5887 5888 5887 5885 5885 5882 5881 5879 5877 5875 5874
5840 5840 5841 5842 5843 5844 5845 5846 5846 5845 5845 5843 5841 5850 5854 5858 5861 5863 5866 5868 5870 5872 5875 5876 5876 5878 5879 5879 5878 5879 5882 5878 5879 5879 5877 5875 5874 5873 5871 5869 5867 5865 5863
5834 5833 5832 5833 5834 5834 5835 5836 5837 5837 5837 5839 5838 5841 5846 5850 5852 5853 5855 5857 5859 5862 5864 5867 5869 5868 5870 5870 5868 5868 5872 5869 5867 5867 5867 5866 5864 5863 5861 5859 5857 5855 5853
5825 5824 5824 5824 5825 5825 5826 5826 5826 5827 5828 5830 5833 5835 5837 5840 5841 5844 5845 5846 5848 5851 5853 5854 5858 5858 5861 5857 5858 5858 5861 5862 5857 5856 5855 5855 5854 5852 5850 5848 5846 5843 5843
5818 5817 5816 5816 5816 5816 5815 5816 5817 5817 5818 5819 5821 5824 5827 5830 5832 5833 5834 5835 5838 5839 5842 5844 5847 5846 5848 5847 5847 5847 5848 5848 5847 5846 5845 5844 5843 5840 5838 5837 5835 5832 5831
5809 5808 5809 5808 5807 5806 5805 5804 5804 5805 5807 5808 5809 5812 5814 5817 5820 5822 5823 5824 5825 5828 5831 5833 5835 5834 5835 5837 5838 5836 5836 5836 5836 5835 5834 5832 5830 5827 5826 5825 5822 5820 5818
5800 5800 5799 5798 5797 5796 5795 5794 5794 5792 5792 5794 5796 5798 5799 5804 5808 5811 5812 5812 5814 5818 5820 5821 5821 5821 5822 5825 5826 5825 5825 5824 5823 5822 5820 5818 5817 5815 5815 5814 5810 5807 5805
5793 5792 5791 5789 5788 5787 5787 5787 5784 5781 5779 5779 5780 5782 5786 5790 5794 5797 5799 5801 5804 5807 5809 5809 5810 5811 5812 5814 5815 5814 5814 5813 5812 5809 5807 5805 5806 5806 5803 5801 5798 5798 5801
5787 5786 5785 5783 5781 5779 5777 5776 5773 5768 5764 5764 5766 5768 5770 5774 5779 5784 5788 5791 5793 5795 5798 5799 5799 5801 5802 5801 5799 5800 5801 5801 5799 5796 5794 5794 5794 5793 5791 5790 5792 5794 5796
5781 5781 5779 5777 5775 5771 5768 5765 5762 5756 5752 5751 5752 5754 5757 5760 5765 5769 5774 5779 5783 5786 5788 5789 5789 5791 5789 5785 5783 5787 5787 5789 5787 5785 5785 5785 5785 5784 5785 5788 5790 5791 5790
5777 5777 5775 5772 5769 5766 5761 5756 5752 5748 5743 5741 5741 5742 5744 5748 5752 5756 5761 5766 5772 5776 5777 5779 5779 5778 5773 5772 5779 5779 5777 5778 5777 5777 5777 5777 5780 5782 5784 5784 5783 5782 5780
5772 5772 5771 5768 5765 5760 5756 5752 5745 5740 5738 5736 5732 5735 5733 5737 5744 5741 5751 5756 5761 5765 5767 5767 5769 5767 5770 5769 5768 5766 5766 5766 5767 5770 5775 5777 5777 5778 5779 5777 5776 5774 5772
5768 5768 5766 5764 5760 5757 5754 5750 5744 5739 5735 5731 5729 5729 5732 5732 5730 5734 5741 5746 5750 5754 5756 5757 5758 5760 5761 5760 5760 5758 5759 5764 5766 5770 5772 5773 5773 5773 5772 5771 5769 5767 5764
5764 5764 5763 5760 5758 5756 5752 5748 5744 5739 5735 5729 5728 5728 5728 5727 5729 5731 5735 5739 5741 5736 5744 5747 5748 5750 5753 5753 5754 5754 5761 5766 5767 5767 5767 5768 5768 5767 5766 5764 5762 5759 5756
5760 5760 5759 5758 5756 5755 5753 5749 5745 5741 5738 5735 5732 5731 5727 5726 5726 5726 5729 5732 5736 5739 5738 5743 5745 5746 5750 5756 5757 5761 5762 5763 5764 5764 5764 5762 5762 5761 5760 5757 5754 5750 5746
5756 5757 5757 5755 5754 5753 5752 5750 5747 5745 5743 5740 5739 5738 5735 5734 5734 5732 5732 5735 5739 5743 5745 5746 5749 5753 5756 5758 5759 5760 5760 5760 5759 5758 5758 5758 5756 5753 5751 5749 5746 5742 5737
5753 5753 5753 5753 5752 5751 5750 5750 5748 5747 5745 5743 5742 5742 5742 5742 5741 5742 5740 5741 5744 5746 5749 5752 5754 5755 5755 5757 5757 5756 5755 5755 5755 5753 5752 5750 5748 5746 5743 5741 5737 5733 5726
5750 5750 5750 5749 5748 5748 5747 5747 5746 5746 5745 5745 5745 5745 5746 5746 5745 5746 5745 5747 5750 5751 5751 5753 5754 5755 5755 5754 5753 5752 5751 5750 5749 5747 5745 5744 5741 5739 5736 5732 5727 5721 5715
5747 5747 5747 5746 5745 5745 5745 5744 5744 5744 5744 5745 5746 5746 5747 5747 5748 5748 5749 5751 5752 5752 5752 5753 5753 5753 5751 5750 5749 5748 5747 5744 5742 5741 5740 5738 5734 5731 5728 5723 5717 5711 5705
5744 5744 5743 5743 5743 5742 5742 5742 5742 5743 5743 5744 5744 5745 5746 5747 5748 5749 5750 5751 5751 5750 5750 5750 5750 5749 5747 5746 5743 5740 5737 5736 5736 5735 5733 5730 5727 5723 5719 5714 5706 5700 5694